Location: Kosice
(48.7170°N, 21.2500°E)
Time: 04:25:56
(UTC+02:00)

ISS - Pass Details

Date: 01 April 2019
Orbit: 408 x 410 km, 51.6° (Epoch: 20 April)

Event Time Altitude Azimuth Distance (km) Brightness Sun altitude
Rises 20:11:02 0° 286° (WNW) 2,340 2.2 -11.3°
Reaches altitude 10° 20:13:09 10° 291° (WNW) 1,477 0.6 -11.7°
Maximum altitude 20:16:25 58° 11° (N) 485 -3.4 -12.2°
Enters shadow 20:18:31 20° 86° (E) 1,019 -2.3 -12.5°
